Regional Weather Roundup
Issued by NWS Northern Indiana

Home | Current Version | Previous Version | Graphics & Text | Print | Product List | Glossary On
Versions: 1 2 3 4 5 6 7 8 9 10 11 12 13 14 15 16 17 18 19 20 21 22 23 24 25 26 27 28 29 30 31 32 33 34 35 36 37 38 39 40 41 42 43 44 45 46 47 48 49 50
000
ASUS43 KIWX 290910
RWRIWX

KIWX WEATHER ROUNDUP
NATIONAL WEATHER SERVICE NORTHERN INDIANA
500 AM EDT FRI JUL 29 2016

NOTE: "FAIR" INDICATES FEW OR NO CLOUDS BELOW 12,000 FEET WITH NO
SIGNIFICANT WEATHER AND/OR OBSTRUCTIONS TO VISIBILITY.

* THESE STATIONS ARE NOT UNDER NWS QUALITY CONTROL. THEY ALSO MAY NOT
  REPORT WEATHER SUCH AS PRECIPITATION OR FOG.

INZ001>027-291000-
NORTHERN INDIANA

CITY           SKY/WX    TMP DP  RH WIND       PRES   REMARKS
GARY*          PTCLDY    69  69 100 CALM      29.91S
VALPARAISO     MOCLDY    68  66  93 N3        29.91S
MICHIGAN CITY* CLEAR     63  63 100 CALM      29.92S FOG
LAPORTE*       CLOUDY   N/A N/A N/A CALM      29.91F
KNOX*          CLOUDY    63  61  94 N3        29.90S VSB 1/4
SOUTH BEND     CLEAR     66  65  96 N3        29.91F
GOSHEN         CLEAR     69  65  86 CALM      29.91S FOG
MONTICELLO*    CLEAR     67  63  87 CALM      29.89F
LOGANSPORT*    CLEAR     64  64 100 CALM      29.90F FOG
ROCHESTER*     CLEAR     68  68 100 CALM      29.90F
WARSAW*        CLEAR     66  66 100 CALM      29.90F FOG
ANGOLA*          N/A     70  61  73 E5        29.93S
FORT WAYNE     PTCLDY    70  68  93 E6        29.91S
HUNTINGTON*    CLEAR     67  65  96 CALM      29.90F
PERU/GRISSOM   CLEAR     66  66 100 E2        29.89S
MARION*        CLEAR     63  63 100 CALM      29.91F FOG

$$
INZ028>050-291000-
CENTRAL INDIANA

CITY           SKY/WX    TMP DP  RH WIND       PRES   REMARKS
LAFAYETTE      FOG       68  68 100 CALM      29.89S VSB 1/4
KOKOMO*        CLEAR     64  61  88 SW3       29.91S
MUNCIE*        CLEAR     71  66  84 CALM      29.91S
INDIANAPOLIS   PTCLDY    70  67  90 W3        29.91S

$$
MIZ043>046-050>051-056>058-064>065-071>073-077>080-291000-
SOUTHWEST LOWER MICHIGAN

CITY           SKY/WX    TMP DP  RH WIND       PRES   REMARKS
BATTLE CREEK   MOCLDY    67  65  93 NE7       29.95R
BENTON HARBOR  CLEAR     67  64  90 E5        29.91F
COLDWATER*     CLOUDY    68  65  89 CALM      29.93F
HILLSDALE*     CLOUDY    65  63  92 CALM      29.94S
HOLLAND        CLEAR     67  62  84 E6        29.93F
GRAND RAPIDS   MOCLDY    68  61  78 E7        29.95F
KALAMAZOO      CLOUDY    69  65  86 CALM      29.93F
STURGIS*       CLOUDY    67  66  97 E3        29.92F
THREE RIVERS*  FAIR      69  66  88 NE5       29.93F

$$
OHZ001>008-015>018-024>025-291000-
NORTHWEST OHIO

CITY           SKY/WX    TMP DP  RH WIND       PRES   REMARKS
DEFIANCE       CLOUDY    72  65  78 NE3       29.91F
FINDLAY        CLEAR     71  64  78 E5        29.90F
TOLEDO EXPRESS CLOUDY    70  61  73 NE6       29.91F
TOLEDO METCALF CLOUDY    73  67  81 NE5       29.92F
LIMA           CLEAR     66  64  93 E3        29.92R

$$
AND FOR LAKE MICHIGAN COASTAL AND OPEN LAKE BUOY OBSERVATIONS

STATION/POSITION TEMP    WIND        PRES    VSBY  WAVE
                 AIR SEA DIR/SP/G                  HT/PER
                 (F)     (DEG/KT/KT) (MB)    (MI)  (FT/S)
CALUMET HARBOR    72     340/  4/  6 1012.2F
MICHIGAN CITY     73      20/  8/  8   N/A
BURNS HARBOR      74      50/  9/ 10 1013.2S
SAINT JOSEPH      68      CALM  /  3 1013.2S
SOUTH LAKE BUOY   73 75   70/ 12/ 14 1012.3F         2/ 6
4 MI NW BRIDGMAN  71 77   80/  8/ 10 1012.3F         2
MICHIGAN CITY     74 77   60/  6/  8   N/A           2/ 6

$$
&&




USA.gov is the U.S. government's official web portal to all federal, state and local government web resources and services.